Weather History for Monett, MO

Change the Weather History Date:

Sunday, December 9, 2012

  Actual Average (KJLN) Record (KJLN)
Temperature  
Mean Temperature 40 °F 38 °F  
Max Temperature 51 °F 48 °F 71 °F (1993)
Min Temperature 26 °F 29 °F 0 °F (1995)
Degree Days  
Heating Degree Days 26 26  
Month to date heating degree days 226  
Since 1 July heating degree days 983  
Cooling Degree Days 0 0  
Month to date cooling degree days 0  
Year to date cooling degree days 1698  
Moisture  
Dew Point 40 °F    
Average Humidity 88    
Maximum Humidity 100    
Minimum Humidity 64    
Precipitation  
Precipitation 0.00 in 0.10 in 1.75 in (2007)
Month to date precipitation 0.93  
Year to date precipitation 44.66  
Sea Level Pressure  
Sea Level Pressure 29.87 in    
Wind  
Wind Speed 7 mph (NNW)    
Max Wind Speed 20 mph    
Max Gust Speed 26 mph    
Visibility 6 miles    
Events Rain    
T = Trace of Precipitation, MM = Missing Value Source: NWS Daily Summary

Daily Weather History Graph

Daily Weather History Graph

Search for Another Location

Airport:

Trip Planner

Search our weather history database for the weather conditions in past years. The results will help you decide how hot, cold, wet, or windy it might be!

Date:

Astronomy

Dec. 09, 2012 Rise Set
Actual Time 7:17 AM CST 4:59 PM CST
Civil Twilight 6:48 AM CST 5:28 PM CST
Nautical Twilight 6:16 AM CST 6:00 PM CST
Astronomical Twilight 5:45 AM CST 6:32 PM CST
Moon 2:56 AM CST (12/9) 2:03 PM CST (12/9)
Length of Visible Light 10h 39m
Length of Day
9h 41m
Waning Crescent, 18% of the Moon is Illuminated
Dec 9
Waning Crescent
Dec 13
New
Dec 19
First Quarter
Dec 28
Full
Jan 4
Last Quarter

Hourly Weather History & Observations

Time (CST) Temp. Windchill Dew Point Humidity Pressure Visibility Wind Dir Wind Speed Gust Speed Precip Events Conditions
12:15 AM 51.8 °F - 50.0 °F 94% 29.81 in 5.0 mi Calm Calm - N/A   Overcast
12:35 AM 50.0 °F - 50.0 °F 100% 29.81 in 4.0 mi Calm Calm - N/A   Overcast
1:15 AM 50.0 °F - 50.0 °F 100% 29.80 in 3.0 mi Calm Calm - N/A   Overcast
1:35 AM 50.0 °F - 50.0 °F 100% 29.80 in 3.0 mi Calm Calm - N/A   Overcast
1:55 AM 50.0 °F - 48.2 °F 94% 29.80 in 2.5 mi Calm Calm - N/A   Overcast
2:15 AM 48.2 °F - 48.2 °F 100% 29.80 in 3.0 mi NNW 3.5 mph - N/A   Overcast
2:35 AM 48.2 °F - 48.2 °F 100% 29.79 in 2.5 mi Calm Calm - N/A   Overcast
2:55 AM 48.2 °F - 48.2 °F 100% 29.78 in 2.5 mi NNE 3.5 mph - N/A   Overcast
3:15 AM 48.2 °F - 48.2 °F 100% 29.79 in 2.0 mi NE 4.6 mph - N/A   Overcast
3:35 AM 50.0 °F - 50.0 °F 100% 29.79 in 2.5 mi NNE 3.5 mph - N/A   Overcast
3:55 AM 48.2 °F - 48.2 °F 100% 29.79 in 2.5 mi NNE 5.8 mph - N/A   Overcast
4:15 AM 48.2 °F - 48.2 °F 100% 29.78 in 2.5 mi NE 3.5 mph - N/A   Overcast
4:35 AM 48.2 °F - 48.2 °F 100% 29.78 in 2.5 mi NE 3.5 mph - N/A   Overcast
4:55 AM 48.2 °F - 48.2 °F 100% 29.77 in 2.5 mi NE 4.6 mph - N/A   Overcast
5:15 AM 48.2 °F - 48.2 °F 100% 29.77 in 2.5 mi NE 3.5 mph - N/A   Overcast
5:55 AM 50.0 °F - 48.2 °F 94% 29.77 in 4.0 mi NE 4.6 mph - N/A   Overcast
6:15 AM 50.0 °F - 50.0 °F 100% 29.77 in 5.0 mi ENE 6.9 mph - N/A   Overcast
6:35 AM 50.0 °F - 50.0 °F 100% 29.77 in 5.0 mi ENE 5.8 mph - N/A Rain Rain
6:55 AM 50.0 °F - 50.0 °F 100% 29.79 in 5.0 mi SE 5.8 mph - N/A   Overcast
7:15 AM 50.0 °F - 50.0 °F 100% 29.80 in 4.0 mi Calm Calm - N/A Rain Rain
7:35 AM 50.0 °F - 50.0 °F 100% 29.79 in 4.0 mi North 3.5 mph - N/A   Overcast
7:55 AM 50.0 °F - 50.0 °F 100% 29.79 in 2.0 mi Calm Calm - N/A   Overcast
8:35 AM 50.0 °F - 50.0 °F 100% 29.80 in 1.8 mi NNW 9.2 mph - N/A   Overcast
8:55 AM 48.2 °F - 48.2 °F 100% 29.81 in 1.2 mi NNW 9.2 mph - N/A   Overcast
9:15 AM 48.2 °F - 46.4 °F 93% 29.82 in 2.0 mi North 8.1 mph - N/A Rain Light Rain
9:35 AM 46.4 °F 41.1 °F 46.4 °F 100% 29.83 in 2.5 mi NNW 11.5 mph - N/A   Overcast
9:55 AM 46.4 °F 40.7 °F 46.4 °F 100% 29.84 in 2.5 mi North 12.7 mph 17.3 mph N/A   Overcast
10:15 AM 46.4 °F 40.7 °F 44.6 °F 93% 29.84 in 3.0 mi North 12.7 mph 18.4 mph N/A   Overcast
10:35 AM 46.4 °F 40.7 °F 44.6 °F 93% 29.84 in 4.0 mi North 12.7 mph 17.3 mph N/A   Overcast
10:55 AM 46.4 °F 41.1 °F 44.6 °F 93% 29.84 in 5.0 mi North 11.5 mph 16.1 mph N/A   Overcast
11:15 AM 44.6 °F 38.8 °F 42.8 °F 93% 29.85 in 7.0 mi NNW 11.5 mph 18.4 mph N/A   Overcast
11:35 AM 44.6 °F 38.1 °F 42.8 °F 93% 29.84 in 7.0 mi North 13.8 mph - N/A   Overcast
11:55 AM 44.6 °F 38.8 °F 42.8 °F 93% 29.84 in 7.0 mi North 11.5 mph 18.4 mph N/A   Overcast
12:15 PM 44.6 °F 37.8 °F 42.8 °F 93% 29.84 in 7.0 mi NNW 15.0 mph 19.6 mph N/A   Overcast
12:35 PM 44.6 °F 37.8 °F 42.8 °F 93% 29.84 in 7.0 mi North 15.0 mph 18.4 mph N/A   Overcast
12:55 PM 42.8 °F 35.8 °F 41.0 °F 93% 29.84 in 7.0 mi NNW 13.8 mph 21.9 mph N/A   Overcast
1:15 PM 42.8 °F 36.2 °F 41.0 °F 93% 29.84 in 7.0 mi NNW 12.7 mph - N/A   Overcast
1:35 PM 44.6 °F 38.8 °F 41.0 °F 87% 29.84 in 7.0 mi NNW 11.5 mph - N/A   Overcast
1:55 PM 42.8 °F 35.8 °F 41.0 °F 93% 29.84 in 7.0 mi North 13.8 mph 17.3 mph N/A   Overcast
2:35 PM 44.6 °F 39.2 °F 41.0 °F 87% 29.86 in 7.0 mi NNW 10.4 mph - N/A   Overcast
2:55 PM 44.6 °F 39.2 °F 41.0 °F 87% 29.86 in 10.0 mi NW 10.4 mph - N/A   Overcast
3:15 PM 44.6 °F 39.2 °F 41.0 °F 87% 29.88 in 10.0 mi NW 10.4 mph - N/A   Overcast
3:35 PM 44.6 °F 39.2 °F 39.2 °F 81% 29.88 in 10.0 mi NNW 10.4 mph - N/A   Overcast
3:55 PM 44.6 °F 40.2 °F 39.2 °F 81% 29.88 in 10.0 mi NW 8.1 mph - N/A   Overcast
4:15 PM 44.6 °F 37.8 °F 39.2 °F 81% 29.89 in 10.0 mi NW 15.0 mph - N/A   Overcast
4:35 PM 44.6 °F 38.1 °F 39.2 °F 81% 29.89 in 10.0 mi NW 13.8 mph - N/A   Overcast
4:55 PM 42.8 °F 35.1 °F 37.4 °F 81% 29.89 in 10.0 mi NW 16.1 mph 20.7 mph N/A   Overcast
5:15 PM 42.8 °F 36.2 °F 37.4 °F 81% 29.90 in 10.0 mi NW 12.7 mph - N/A   Overcast
5:55 PM 42.8 °F 35.1 °F 35.6 °F 76% 29.92 in 10.0 mi NW 16.1 mph 23.0 mph N/A   Overcast
6:15 PM 41.0 °F 33.5 °F 35.6 °F 81% 29.93 in 10.0 mi NW 13.8 mph 17.3 mph N/A   Overcast
6:35 PM 41.0 °F 32.8 °F 33.8 °F 76% 29.94 in 10.0 mi NW 16.1 mph - N/A   Overcast
6:55 PM 41.0 °F 32.5 °F 32.0 °F 70% 29.95 in 10.0 mi NNW 17.3 mph 24.2 mph N/A   Overcast
7:15 PM 37.4 °F 27.2 °F 30.2 °F 75% 29.96 in 10.0 mi NW 19.6 mph 25.3 mph N/A   Overcast
7:35 PM 37.4 °F 28.2 °F 28.4 °F 70% 29.96 in 10.0 mi NW 16.1 mph 25.3 mph N/A   Scattered Clouds
7:55 PM 35.6 °F 26.2 °F 28.4 °F 75% 29.97 in 10.0 mi NW 15.0 mph 24.2 mph N/A   Clear
8:35 PM 32.0 °F 21.2 °F 24.8 °F 75% 29.98 in 10.0 mi NW 16.1 mph 19.6 mph N/A   Clear
8:55 PM 32.0 °F 21.6 °F 23.0 °F 69% 29.99 in 10.0 mi NNW 15.0 mph 23.0 mph N/A   Clear
9:15 PM 32.0 °F 21.2 °F 23.0 °F 69% 29.99 in 10.0 mi NNW 16.1 mph - N/A   Clear
9:35 PM 30.2 °F 17.8 °F 21.2 °F 69% 30.00 in 10.0 mi NNW 19.6 mph 26.5 mph N/A   Clear
9:55 PM 30.2 °F 18.1 °F 19.4 °F 64% 30.00 in 10.0 mi NNW 18.4 mph 25.3 mph N/A   Clear
10:15 PM 28.4 °F 17.0 °F 19.4 °F 69% 30.01 in 10.0 mi NNW 15.0 mph - N/A   Clear
10:35 PM 28.4 °F 17.0 °F 17.6 °F 64% 30.02 in 10.0 mi NW 15.0 mph 19.6 mph N/A   Clear
10:55 PM 28.4 °F 17.5 °F 17.6 °F 64% 30.03 in 10.0 mi NW 13.8 mph 20.7 mph N/A   Clear
11:15 PM 28.4 °F 17.5 °F 17.6 °F 64% 30.02 in 10.0 mi NW 13.8 mph - N/A   Clear
11:35 PM 28.4 °F 19.1 °F 17.6 °F 64% 30.03 in 10.0 mi NW 10.4 mph - N/A   Clear
11:55 PM 26.6 °F 16.2 °F 17.6 °F 69% 30.02 in 10.0 mi NW 11.5 mph 18.4 mph N/A   Clear